RYR3543 EGCC-LFRS

Flight info

Callsign RYR3543
Flight time 1h 14m
Altitude 31000
Route LISTO P18 TELBA L151 KIDLI UN859 CPT/N0362F230 Y321 PEPIS/N0410F300 Q41 SAM/N0417F310 M195 MARUK N621 LELNA DCT DOMOK UT260 UPALO UN862 REN A25 GODAN
Aircraft B738/M-SDE2E3FGHIRWXY/LB1

Departure

Time 2026-04-30 18:22
Airport Manchester Airport (EGCC)

Arrival

Time 2026-04-30 19:36
Airport Nantes Atlantique Airport (LFRS)
Time Latitude Longitude Altitude Speed Heading
2026-04-30 17:41 53.36049 -2.27139 233 ft 0 kts 70°
2026-04-30 18:07 53.36026 -2.27218 236 ft 4 kts 42°
2026-04-30 18:08 53.36012 -2.27303 233 ft 0 kts 88°
2026-04-30 18:12 53.35965 -2.27241 232 ft 5 kts 173°
2026-04-30 18:13 53.35901 -2.27228 232 ft 4 kts 172°
2026-04-30 18:13 53.35809 -2.27280 232 ft 9 kts 229°
2026-04-30 18:14 53.35712 -2.27480 232 ft 9 kts 231°
2026-04-30 18:15 53.35588 -2.27707 232 ft 8 kts 224°
2026-04-30 18:15 53.35465 -2.27907 232 ft 8 kts 224°
2026-04-30 18:16 53.35383 -2.28039 232 ft 8 kts 223°
2026-04-30 18:16 53.35305 -2.28165 232 ft 9 kts 225°
2026-04-30 18:17 53.35258 -2.28244 232 ft 10 kts 227°
2026-04-30 18:17 53.35215 -2.28332 232 ft 10 kts 231°
2026-04-30 18:17 53.35135 -2.28501 232 ft 9 kts 231°
2026-04-30 18:18 53.35096 -2.28583 232 ft 9 kts 231°
2026-04-30 18:18 53.35058 -2.28661 232 ft 9 kts 230°
2026-04-30 18:18 53.35019 -2.28734 232 ft 8 kts 225°
2026-04-30 18:18 53.34979 -2.28802 232 ft 8 kts 226°
2026-04-30 18:19 53.34941 -2.28869 232 ft 8 kts 226°
2026-04-30 18:19 53.34904 -2.28934 232 ft 8 kts 226°
2026-04-30 18:19 53.34868 -2.28996 232 ft 7 kts 226°
2026-04-30 18:19 53.34834 -2.29058 232 ft 7 kts 229°
2026-04-30 18:20 53.34803 -2.29120 232 ft 7 kts 230°
2026-04-30 18:20 53.34773 -2.29182 232 ft 7 kts 231°
2026-04-30 18:20 53.34741 -2.29247 232 ft 7 kts 231°
2026-04-30 18:20 53.34700 -2.29308 232 ft 9 kts 207°
2026-04-30 18:21 53.34634 -2.29342 235 ft 10 kts 183°
2026-04-30 18:21 53.34566 -2.29312 233 ft 10 kts 150°
2026-04-30 18:21 53.34547 -2.29215 232 ft 10 kts 62°
2026-04-30 18:21 53.34650 -2.28994 232 ft 53 kts 52°
2026-04-30 18:22 53.35032 -2.28204 233 ft 120 kts 51°
2026-04-30 18:22 53.36344 -2.25419 1090 ft 158 kts 58°
2026-04-30 18:22 53.37005 -2.24018 1952 ft 155 kts 59°
2026-04-30 18:23 53.37567 -2.22487 2568 ft 151 kts 82°
2026-04-30 18:23 53.37522 -2.20784 3218 ft 149 kts 115°
2026-04-30 18:23 53.36922 -2.19331 3693 ft 164 kts 138°
2026-04-30 18:23 53.35906 -2.18145 3997 ft 186 kts 148°
2026-04-30 18:24 53.33158 -2.16852 4384 ft 236 kts 181°
2026-04-30 18:24 53.31464 -2.17110 4891 ft 245 kts 185°
2026-04-30 18:24 53.29758 -2.17409 4977 ft 248 kts 184°
2026-04-30 18:25 53.28035 -2.17706 4986 ft 249 kts 184°
2026-04-30 18:25 53.24597 -2.18280 5019 ft 248 kts 184°
2026-04-30 18:25 53.22864 -2.18557 5383 ft 253 kts 184°
2026-04-30 18:26 53.19368 -2.19110 7112 ft 254 kts 184°
2026-04-30 18:26 53.17587 -2.19387 7786 ft 261 kts 184°
2026-04-30 18:26 53.15778 -2.19669 8650 ft 261 kts 184°
2026-04-30 18:27 53.12129 -2.20237 10171 ft 268 kts 184°
2026-04-30 18:27 53.10215 -2.20534 10660 ft 282 kts 184°
2026-04-30 18:28 53.06005 -2.21187 11266 ft 318 kts 184°
2026-04-30 18:28 53.03818 -2.21528 11949 ft 322 kts 184°
2026-04-30 18:28 52.99330 -2.22228 13522 ft 326 kts 183°
2026-04-30 18:29 52.97067 -2.22582 14260 ft 329 kts 183°
2026-04-30 18:29 52.90101 -2.23674 16371 ft 340 kts 183°
2026-04-30 18:30 52.85346 -2.24537 17755 ft 349 kts 189°
2026-04-30 18:30 52.80568 -2.26386 19048 ft 356 kts 191°
2026-04-30 18:31 52.78159 -2.27348 19705 ft 357 kts 191°
2026-04-30 18:31 52.73291 -2.29250 20964 ft 361 kts 190°
2026-04-30 18:32 52.68338 -2.30812 22141 ft 364 kts 177°
2026-04-30 18:32 52.65834 -2.30270 22746 ft 364 kts 165°
2026-04-30 18:32 52.61306 -2.26564 23881 ft 369 kts 147°
2026-04-30 18:33 52.59181 -2.24174 24313 ft 373 kts 147°
2026-04-30 18:33 52.54871 -2.19293 25226 ft 377 kts 147°
2026-04-30 18:33 52.52707 -2.16885 25846 ft 375 kts 147°
2026-04-30 18:34 52.50552 -2.14511 26464 ft 373 kts 147°
2026-04-30 18:34 52.46240 -2.09798 27566 ft 372 kts 148°
2026-04-30 18:34 52.44087 -2.07452 28150 ft 371 kts 148°
2026-04-30 18:35 52.41945 -2.05122 28699 ft 370 kts 148°
2026-04-30 18:35 52.39800 -2.02789 29240 ft 370 kts 148°
2026-04-30 18:35 52.37657 -2.00459 29782 ft 369 kts 148°
2026-04-30 18:36 52.33388 -1.95827 30726 ft 369 kts 148°
2026-04-30 18:36 52.31247 -1.93509 31109 ft 370 kts 148°
2026-04-30 18:37 52.24739 -1.86490 31164 ft 370 kts 148°
2026-04-30 18:37 52.20459 -1.81920 31194 ft 371 kts 148°
2026-04-30 18:37 52.18297 -1.79615 31305 ft 379 kts 148°
2026-04-30 18:38 52.16066 -1.77239 31372 ft 388 kts 148°
2026-04-30 18:38 52.11452 -1.72329 31515 ft 404 kts 148°
2026-04-30 18:38 52.09100 -1.69832 31981 ft 401 kts 148°
2026-04-30 18:39 52.06779 -1.67377 32617 ft 394 kts 148°
2026-04-30 18:39 52.04500 -1.64983 33244 ft 388 kts 148°
2026-04-30 18:39 52.02242 -1.62621 33774 ft 384 kts 148°
2026-04-30 18:39 52.00010 -1.60264 34160 ft 383 kts 148°
2026-04-30 18:40 51.97781 -1.57895 34415 ft 384 kts 148°
2026-04-30 18:40 51.95543 -1.55513 34670 ft 385 kts 148°
2026-04-30 18:40 51.93302 -1.53131 34972 ft 385 kts 148°
2026-04-30 18:40 51.91061 -1.50755 35274 ft 385 kts 148°
2026-04-30 18:41 51.88818 -1.48384 35536 ft 385 kts 148°
2026-04-30 18:41 51.86571 -1.46014 35788 ft 386 kts 148°
2026-04-30 18:41 51.84320 -1.43653 36068 ft 386 kts 148°
2026-04-30 18:41 51.82065 -1.41292 36321 ft 386 kts 148°
2026-04-30 18:42 51.79809 -1.38934 36544 ft 387 kts 148°
2026-04-30 18:42 51.75045 -1.34938 36998 ft 387 kts 162°
2026-04-30 18:42 51.72471 -1.33667 37221 ft 387 kts 163°
2026-04-30 18:45 51.46462 -1.22077 39093 ft 390 kts 182°
2026-04-30 18:45 51.44631 -1.22256 39146 ft 391 kts 182°
2026-04-30 18:46 51.39151 -1.22784 39164 ft 397 kts 182°
2026-04-30 18:46 51.32685 -1.23292 39161 ft 403 kts 182°
2026-04-30 18:47 51.27049 -1.23771 39152 ft 407 kts 182°
2026-04-30 18:47 51.22311 -1.24178 39153 ft 407 kts 182°
2026-04-30 18:48 51.16709 -1.25501 39167 ft 415 kts 193°
2026-04-30 18:48 51.11098 -1.27938 39167 ft 421 kts 194°
2026-04-30 18:49 51.05352 -1.30400 39171 ft 427 kts 193°
2026-04-30 18:49 50.99604 -1.32796 39160 ft 432 kts 193°
2026-04-30 18:50 50.93936 -1.36050 39159 ft 438 kts 207°
2026-04-30 18:50 50.88797 -1.41329 39155 ft 440 kts 212°
2026-04-30 18:51 50.83757 -1.46698 39137 ft 432 kts 212°
2026-04-30 18:51 50.78808 -1.51888 39140 ft 428 kts 211°
2026-04-30 18:52 50.73841 -1.57039 39124 ft 427 kts 211°
2026-04-30 18:52 50.68875 -1.62169 39124 ft 426 kts 211°
2026-04-30 18:53 50.63909 -1.67289 39126 ft 427 kts 211°
2026-04-30 18:53 50.58946 -1.72395 39124 ft 428 kts 211°
2026-04-30 18:54 50.53943 -1.77529 39126 ft 429 kts 211°
2026-04-30 18:54 50.48930 -1.82639 39111 ft 430 kts 211°
2026-04-30 18:55 50.43895 -1.87740 39108 ft 432 kts 211°
2026-04-30 18:55 50.36306 -1.95413 39101 ft 433 kts 211°
2026-04-30 18:56 50.28691 -2.03089 39093 ft 434 kts 211°
2026-04-30 18:57 50.20313 -2.07907 39081 ft 428 kts 185°
2026-04-30 18:57 50.14378 -2.08643 39092 ft 428 kts 183°
2026-04-30 18:58 50.05527 -2.09725 39084 ft 428 kts 184°
2026-04-30 18:59 49.96622 -2.10782 39091 ft 427 kts 180°
2026-04-30 19:00 49.84733 -2.10604 39095 ft 428 kts 179°
2026-04-30 19:01 49.72826 -2.10364 39097 ft 428 kts 173°
2026-04-30 19:02 49.64168 -2.06995 39098 ft 429 kts 163°
2026-04-30 19:03 49.52704 -2.01853 39085 ft 428 kts 164°
2026-04-30 19:03 49.47055 -1.99380 38242 ft 420 kts 164°
2026-04-30 19:04 49.41404 -1.96918 36976 ft 421 kts 164°
2026-04-30 19:04 49.35826 -1.94493 36205 ft 412 kts 165°
2026-04-30 19:05 49.30342 -1.92113 35369 ft 407 kts 165°
2026-04-30 19:05 49.24929 -1.89770 34569 ft 402 kts 165°
2026-04-30 19:06 49.19593 -1.87465 33796 ft 396 kts 165°
2026-04-30 19:06 49.16952 -1.86326 33384 ft 393 kts 165°
2026-04-30 19:06 49.11738 -1.84082 32586 ft 387 kts 165°
2026-04-30 19:07 49.06592 -1.81872 31800 ft 381 kts 165°
2026-04-30 19:07 49.04042 -1.80778 31417 ft 379 kts 165°
2026-04-30 19:08 48.98993 -1.78615 30659 ft 375 kts 164°
2026-04-30 19:08 48.94004 -1.76483 29901 ft 370 kts 164°
2026-04-30 19:08 48.91517 -1.75497 29455 ft 368 kts 169°
2026-04-30 19:09 48.86453 -1.75023 28600 ft 363 kts 179°
2026-04-30 19:09 48.83926 -1.75019 28188 ft 361 kts 179°
2026-04-30 19:09 48.81420 -1.75021 27784 ft 359 kts 179°
2026-04-30 19:10 48.76453 -1.75004 26994 ft 355 kts 179°
2026-04-30 19:10 48.71542 -1.74961 26243 ft 351 kts 179°
2026-04-30 19:11 48.69108 -1.74935 25880 ft 348 kts 178°
2026-04-30 19:11 48.64285 -1.74880 25150 ft 345 kts 178°
2026-04-30 19:11 48.61892 -1.74851 24803 ft 343 kts 178°
2026-04-30 19:12 48.59515 -1.74823 24463 ft 341 kts 178°
2026-04-30 19:12 48.57150 -1.74795 24122 ft 339 kts 178°
2026-04-30 19:12 48.54799 -1.74767 23775 ft 337 kts 178°
2026-04-30 19:13 48.50127 -1.74711 23014 ft 334 kts 178°
2026-04-30 19:13 48.45518 -1.74656 22263 ft 330 kts 178°
2026-04-30 19:13 48.43257 -1.74629 21897 ft 328 kts 178°
2026-04-30 19:14 48.40951 -1.74602 21533 ft 326 kts 178°
2026-04-30 19:14 48.38714 -1.74575 21180 ft 325 kts 178°
2026-04-30 19:14 48.36429 -1.74548 20854 ft 322 kts 179°
2026-04-30 19:14 48.34201 -1.74522 20617 ft 319 kts 179°
2026-04-30 19:15 48.31990 -1.74495 20368 ft 317 kts 179°
2026-04-30 19:15 48.27586 -1.74443 19879 ft 315 kts 179°
2026-04-30 19:15 48.25402 -1.74417 19641 ft 314 kts 179°
2026-04-30 19:16 48.23221 -1.74392 19405 ft 314 kts 179°
2026-04-30 19:16 48.21022 -1.74365 19179 ft 317 kts 179°
2026-04-30 19:16 48.16613 -1.74314 18710 ft 316 kts 179°
2026-04-30 19:17 48.14455 -1.74288 18483 ft 315 kts 179°
2026-04-30 19:17 48.10084 -1.74237 17952 ft 313 kts 179°
2026-04-30 19:17 48.07915 -1.74228 17697 ft 312 kts 182°
2026-04-30 19:18 48.04383 -1.75375 17258 ft 311 kts 197°
2026-04-30 19:18 48.01689 -1.76780 16916 ft 309 kts 198°
2026-04-30 19:18 47.99661 -1.77852 16662 ft 308 kts 198°
2026-04-30 19:19 47.97641 -1.78914 16410 ft 307 kts 198°
2026-04-30 19:19 47.95631 -1.79961 16212 ft 304 kts 198°
2026-04-30 19:19 47.91667 -1.82009 15612 ft 300 kts 197°
2026-04-30 19:20 47.89698 -1.83020 15294 ft 299 kts 197°
2026-04-30 19:20 47.87738 -1.84024 14993 ft 297 kts 197°
2026-04-30 19:20 47.83845 -1.86013 14375 ft 295 kts 197°
2026-04-30 19:21 47.81909 -1.87001 14078 ft 294 kts 197°
2026-04-30 19:21 47.78060 -1.88962 13428 ft 291 kts 197°
2026-04-30 19:22 47.74242 -1.90905 12764 ft 289 kts 197°
2026-04-30 19:22 47.68579 -1.93780 11847 ft 285 kts 197°
2026-04-30 19:23 47.62904 -1.95056 10922 ft 276 kts 159°
2026-04-30 19:24 47.59458 -1.92626 10333 ft 274 kts 153°
2026-04-30 19:24 47.57760 -1.91365 10050 ft 272 kts 153°
2026-04-30 19:24 47.54382 -1.88877 9423 ft 270 kts 153°
2026-04-30 19:25 47.49356 -1.85219 8509 ft 267 kts 154°
2026-04-30 19:26 47.46033 -1.82814 7897 ft 265 kts 154°
2026-04-30 19:26 47.43100 -1.79680 7227 ft 267 kts 122°
2026-04-30 19:26 47.42414 -1.77119 6854 ft 271 kts 105°
2026-04-30 19:27 47.41586 -1.71732 6224 ft 271 kts 104°
2026-04-30 19:27 47.40773 -1.66342 5632 ft 268 kts 104°
2026-04-30 19:28 47.40359 -1.63661 5320 ft 267 kts 104°
2026-04-30 19:28 47.39545 -1.58450 4984 ft 247 kts 105°
2026-04-30 19:29 47.38805 -1.53769 4784 ft 223 kts 105°
2026-04-30 19:29 47.38458 -1.51576 4669 ft 216 kts 105°
2026-04-30 19:30 47.36020 -1.46306 3955 ft 209 kts 133°
2026-04-30 19:30 47.34090 -1.43114 3557 ft 203 kts 139°
2026-04-30 19:31 47.31658 -1.42428 3346 ft 177 kts 200°
2026-04-30 19:31 47.30614 -1.43363 3071 ft 177 kts 219°
2026-04-30 19:31 47.28688 -1.45751 2987 ft 182 kts 218°
2026-04-30 19:32 47.28052 -1.46536 2992 ft 178 kts 218°
2026-04-30 19:32 47.27110 -1.47699 2892 ft 178 kts 218°
2026-04-30 19:32 47.26172 -1.48856 2662 ft 172 kts 218°
2026-04-30 19:32 47.25280 -1.49958 2421 ft 163 kts 218°
2026-04-30 19:33 47.24431 -1.51006 2235 ft 152 kts 218°
2026-04-30 19:33 47.23659 -1.51961 2044 ft 135 kts 218°
2026-04-30 19:33 47.22966 -1.52817 1832 ft 127 kts 218°
2026-04-30 19:33 47.22283 -1.53659 1666 ft 129 kts 218°
2026-04-30 19:34 47.21593 -1.54509 1484 ft 129 kts 218°
2026-04-30 19:34 47.20906 -1.55356 1304 ft 129 kts 219°
2026-04-30 19:34 47.19534 -1.57041 971 ft 129 kts 219°
2026-04-30 19:35 47.18841 -1.57888 788 ft 129 kts 220°
2026-04-30 19:35 47.18183 -1.58773 560 ft 130 kts 220°
2026-04-30 19:35 47.17421 -1.59452 362 ft 127 kts 212°
2026-04-30 19:35 47.16636 -1.60068 176 ft 128 kts 209°
2026-04-30 19:36 47.15851 -1.60667 84 ft 119 kts 206°
2026-04-30 19:36 47.15223 -1.61143 87 ft 83 kts 207°
2026-04-30 19:36 47.14826 -1.61281 91 ft 16 kts 83°
2026-04-30 19:37 47.14834 -1.61233 90 ft 0 kts 72°
2026-04-30 19:37 47.14834 -1.61230 90 ft 2 kts 71°
2026-04-30 19:37 47.14844 -1.61200 90 ft 4 kts 60°
2026-04-30 19:38 47.14867 -1.61158 91 ft 8 kts 46°
2026-04-30 19:38 47.14933 -1.61098 89 ft 14 kts 27°
2026-04-30 19:38 47.15024 -1.61028 90 ft 15 kts 28°
2026-04-30 19:38 47.15115 -1.60958 90 ft 14 kts 27°
2026-04-30 19:39 47.15202 -1.60892 88 ft 14 kts 27°
2026-04-30 19:39 47.15290 -1.60826 91 ft 14 kts 27°
2026-04-30 19:39 47.15373 -1.60761 91 ft 13 kts 27°
2026-04-30 19:39 47.15467 -1.60691 89 ft 16 kts 27°
2026-04-30 19:40 47.15565 -1.60613 90 ft 16 kts 39°
2026-04-30 19:40 47.15553 -1.60476 91 ft 15 kts 127°
2026-04-30 19:40 47.15524 -1.60339 93 ft 14 kts 70°
2026-04-30 19:40 47.15583 -1.60236 91 ft 11 kts 63°
2026-04-30 19:41 47.15579 -1.60179 89 ft 6 kts 121°
2026-04-30 19:41 47.15565 -1.60141 89 ft 0 kts 112°
2026-04-30 19:41 47.15565 -1.60137 89 ft 0 kts 98°
2026-04-30 19:42 47.15577 -1.60094 86 ft 8 kts 51°
2026-04-30 19:42 47.15600 -1.60057 84 ft 2 kts 46°
2026-04-30 19:42 47.15608 -1.60046 84 ft 0 kts 43°